Location: *
(50.0661°N, 20.0381°E)
Time: 08:20:48
(UTC+00:00)

Daily predictions for brighter satellites

Satellite Brightness Start Highest point End
(mag) Time Altitude Azimuth Time Altitude Azimuth Time Altitude Azimuth
STARLINK-1225 4.1 17:49:46 10° WNW 17:53:51 56° N 17:57:57 10° E
ATLAS 2AS CENTAUR R/B 3.0 17:48:04 10° NW 17:55:50 77° NE 18:02:56 10° SE
Cosmos 2251 Rocket 3.6 17:50:32 10° SSW 17:55:55 87° ESE 18:01:21 10° NNE
Cosmos 1437 2.5 17:55:32 10° N 17:58:34 81° ENE 18:01:36 10° SSE
STARLINK-1230 4.1 17:54:46 10° WNW 17:58:51 56° N 18:02:57 10° E
SL-08 RB Rocket 4.0 17:55:38 10° SE 18:00:02 49° ENE 18:04:30 10° N
Cosmos 1908 3.9 17:58:53 10° SSE 18:02:21 33° E 18:05:53 10° NNE
CZ-4 R/B 4.2 17:59:48 10° SW 18:02:40 20° W 18:05:34 10° NW
CZ-4C R/B 4.2 17:57:27 10° NW 18:02:41 27° N 18:08:43 10° ENE
STARLINK-1243 4.1 17:59:45 10° WNW 18:03:51 57° N 18:07:57 10° E
SeaSat 1 2.6 17:59:43 10° NNE 18:04:41 81° WNW 18:09:37 10° SW
Resurs 1-3 4.4 18:00:53 10° SE 18:04:51 35° ENE 18:08:51 10° N
Cosmos 1943 3.2 17:59:26 10° SSW 18:05:03 70° ESE 18:10:45 10° NNE
Ariane Rocket 3.2 18:03:03 10° S 18:08:07 77° WSW 18:13:12 10° NNW
STARLINK-1236 4.1 18:04:44 10° WNW 18:08:50 58° N 18:12:56 10° E
MONITOR-E 3.7 18:06:50 10° SSE 18:09:28 83° ENE 18:12:07 10° NNW
IRIDIUM 104 4.4 18:06:18 10° N 18:11:33 88° W 18:16:47 10° S
Cosmos 1656 Rocket 3.8 18:06:13 10° NNW 18:11:54 81° WSW 18:17:29 10° SSE
Cosmos 1140 Rocket 4.3 18:07:37 10° SSE 18:12:00 28° E 18:16:23 10° NE
STARLINK-1228 2.7 18:10:11 10° WNW 18:13:08 79° NNE 18:15:36 14° ESE
Cosmos 1953 2.6 18:09:16 10° SSW 18:13:14 72° W 18:17:14 10° N
Cosmos 2184 Rocket 4.0 18:07:55 10° N 18:14:16 88° E 18:20:29 10° S
Meteor 1-11 4.4 18:09:38 10° N 18:15:22 60° ENE 18:20:59 10° SSE
COSMOS 2455 3.2 18:10:38 10° NNW 18:16:34 55° NE 18:22:02 12° ESE
Cosmos 1726 2.2 18:14:15 10° S 18:18:00 85° WNW 18:21:45 10° N
STARLINK-1269 4.0 18:14:42 10° WNW 18:18:49 59° N 18:22:41 11° E
CZ-2C R/B 3.3 18:14:52 10° NNE 18:19:25 30° E 18:23:59 10° SSE
Meteor 2-10 4.2 18:14:40 10° S 18:20:10 89° ESE 18:25:54 10° NNE
MetOp-A 4.2 18:15:42 10° SSE 18:20:57 60° ENE 18:26:15 10° N
Cosmos 2058 Rocket 3.6 18:17:57 10° SSE 18:22:07 38° E 18:26:19 10° NNE
STARLINK-1200 4.0 18:19:41 10° WNW 18:23:49 60° N 18:27:28 13° E
Cosmos 614 Rocket 4.1 18:19:16 10° S 18:24:21 56° ESE 18:29:28 10° NNE
ARGOS 3.4 18:21:48 10° S 18:27:12 75° WSW 18:32:36 10° NNW
STARLINK-1192 3.9 18:24:41 10° WNW 18:28:49 62° N 18:32:16 14° E
Cosmos 1726 Rocket 3.5 18:25:47 10° S 18:30:10 68° E 18:34:36 10° NNE
FREGAT/IRIS 3.8 18:28:03 10° S 18:30:36 38° W 18:33:13 10° NNW
SL-16 R/B 4.5 18:26:00 10° W 18:30:47 27° NW 18:35:34 10° NNE
SL-24 R/B 3.9 18:28:11 10° NNE 18:32:15 53° E 18:35:56 10° S
Meteor 2-17 Rocket 4.4 18:27:12 10° N 18:33:23 81° E 18:39:33 10° SSE
STARLINK-1244 3.9 18:29:40 10° WNW 18:33:47 63° N 18:37:02 16° E
Resurs 01 Rocket 2.0 18:30:56 13° SE 18:34:36 47° ENE 18:38:51 10° N
Cosmos 1825 Rocket 4.3 18:31:02 10° NNW 18:35:22 56° W 18:39:37 10° S
Nadezhda 1 Rocket 4.0 18:30:28 10° S 18:36:50 75° E 18:43:11 10° NNE
Cosmos 2154 Rocket 4.0 18:30:29 10° N 18:36:53 85° E 18:43:13 10° S
ERBS 3.4 18:34:00 10° NW 18:37:11 37° NNE 18:39:24 17° E
ATLAS CENTAUR R/B 3.6 18:35:16 10° NNW 18:37:28 14° NNE 18:39:36 10° NE
APEX 4.5 18:31:24 10° NNW 18:38:04 77° WSW 18:43:26 10° SSE
STARLINK-1138 3.9 18:34:39 10° WNW 18:38:47 65° NNE 18:41:50 18° E
USA 186 3.3 18:35:58 10° SSW 18:39:04 36° W 18:42:02 10° NNW
SL-8 Rocket 4.5 18:33:52 10° N 18:39:52 42° ENE 18:44:32 16° SE
Cosmos 921 Rocket 2.9 18:37:37 10° NNW 18:41:49 68° ENE 18:44:56 17° SSE
STARLINK-1143 3.8 18:39:37 10° WNW 18:43:46 66° NNE 18:46:36 19° E
SL-24 R/B - RUBIN 2 4.3 18:39:57 10° SSW 18:45:28 59° ESE 18:51:43 10° NE
Cosmos 407 Rocket 3.4 18:40:33 10° SSW 18:45:39 69° ESE 18:50:46 10° NNE
STARLINK-1233 2.8 18:43:11 10° WNW 18:46:19 86° SSW 18:47:47 29° ESE
STARLINK-1234 2.8 18:43:20 10° WNW 18:46:24 70° SSW 18:47:45 29° SE
Cosmos 1980 Rocket 4.2 18:43:28 10° N 18:46:45 15° NNE 18:50:01 10° ENE
STARLINK-1212 2.8 18:43:38 10° WNW 18:46:46 85° SSW 18:48:13 29° ESE
Cosmos 676 Rocket 4.4 18:41:56 10° S 18:46:48 39° ESE 18:51:39 10° NE
STARLINK-1105 2.8 18:44:05 10° WNW 18:47:13 85° SSW 18:48:40 30° ESE
STARLINK-1209 2.9 18:44:31 10° WNW 18:47:33 65° SSW 18:48:51 30° SE
STARLINK-1206 2.8 18:44:34 10° WNW 18:47:41 84° SSW 18:49:04 30° ESE
STARLINK-1247 2.8 18:45:01 10° WNW 18:48:08 84° SSW 18:49:30 31° ESE
STARLINK-1227 2.8 18:45:25 10° WNW 18:48:35 83° SSW 18:49:57 31° ESE
STARLINK-1241 3.8 18:44:39 10° WNW 18:48:48 68° NNE 18:51:25 22° E
Cosmos 2228 3.4 18:44:39 10° SSW 18:48:56 68° W 18:53:18 10° N
STARLINK-1218 2.8 18:45:55 10° WNW 18:49:03 83° SSW 18:50:22 31° ESE
STARLINK-1226 2.8 18:46:22 10° WNW 18:49:30 83° SSW 18:50:49 32° ESE
ERS-1 Rocket 4.4 18:47:20 17° E 18:49:35 23° ENE 18:53:28 10° N
STARLINK-1254 2.8 18:46:47 10° WNW 18:49:56 82° SSW 18:51:15 32° ESE
SPOT 3 Rocket 3.7 18:45:00 10° S 18:50:12 77° WSW 18:55:27 10° NNW
STARLINK-1215 2.8 18:47:16 10° WNW 18:50:24 82° SSW 18:51:40 32° ESE
STARLINK-1231 2.8 18:47:43 10° WNW 18:50:51 81° SSW 18:52:06 33° ESE
STARLINK-1232 2.8 18:48:37 10° WNW 18:51:45 80° SSW 18:52:59 34° ESE
STARLINK-1217 2.8 18:49:04 10° WNW 18:52:12 80° SSW 18:53:24 34° ESE
Cosmos 1461 3.4 18:47:47 10° NW 18:52:16 67° SW 18:55:35 18° SSE
STARLINK-1208 2.8 18:49:29 10° WNW 18:52:38 79° SSW 18:53:51 34° ESE
Cosmos 2366 rocket 4.5 18:46:54 10° N 18:52:42 41° ENE 18:56:24 21° SE
STARLINK-1229 2.8 18:49:58 10° WNW 18:53:05 79° SSW 18:54:16 35° ESE
STARLINK-1271 2.8 18:50:25 10° WNW 18:53:33 78° SSW 18:54:43 35° ESE
STARLINK-1239 3.7 18:49:35 10° WNW 18:53:44 71° NNE 18:56:09 24° E
STARLINK-1270 2.8 18:50:52 10° WNW 18:54:00 78° SSW 18:55:08 35° ESE
Aureole 1 Rocket 4.0 18:46:50 10° SSW 18:54:17 84° ESE 19:00:03 10° NNE
STARLINK-1154 2.8 18:51:19 10° WNW 18:54:27 77° SSW 18:55:34 36° SE
STARLINK-1197 2.8 18:52:14 10° WNW 18:55:21 76° SSW 18:56:26 37° SE
STARLINK-1189 2.8 18:52:40 10° WNW 18:55:48 76° SSW 18:56:52 37° SE
SPOT 5 4.3 18:55:01 16° E 18:56:13 18° ENE 18:59:10 10° NNE
STARLINK-1198 2.8 18:53:08 10° WNW 18:56:15 75° SSW 18:57:18 37° SE
Cosmos 1892 4.0 18:53:03 10° NNE 18:56:16 24° ENE 18:57:00 23° E
STARLINK-1188 2.8 18:53:34 10° WNW 18:56:42 75° SSW 18:57:44 38° SE
SJ-6B 4.3 18:53:03 10° SSW 18:56:55 39° W 19:00:50 10° NNW
Cosmos 1953 Rocket 4.5 18:52:42 10° NNW 18:57:03 50° W 19:01:23 10° S
STARLINK-1235 3.0 18:54:13 10° WNW 18:57:21 62° SSW 18:58:23 36° SE
STARLINK-1187 2.9 18:54:39 10° WNW 18:57:48 68° SSW 18:58:50 38° SE
STARLINK-1199 2.9 18:55:31 10° WNW 18:58:39 73° SSW 18:59:39 39° SE
STARLINK-1240 3.7 18:54:35 10° WNW 18:58:45 73° NNE 19:00:57 26° E
STARLINK-29 3.7 18:56:04 10° SSW 18:58:47 32° SSE 18:58:47 32° SSE
STARLINK-1191 2.9 18:55:58 10° WNW 18:59:07 73° SSW 19:00:06 40° SE
STARLINK-1210 2.9 18:56:25 10° WNW 18:59:33 72° SSW 19:00:31 40° SE
Cosmos 220 Rocket 4.5 18:55:32 10° NNW 18:59:42 45° ENE 19:01:33 28° ESE
STARLINK-1221 2.9 18:56:53 10° WNW 19:00:01 72° SSW 19:00:58 41° SE
STARLINK-1219 2.9 18:57:19 10° WNW 19:00:27 71° SSW 19:01:23 41° SE
ATLAS 5 CENTAUR R/B 1.5 18:56:47 10° SSW 19:00:54 61° SE 19:05:35 10° NE
STARLINK-1222 2.9 18:57:46 10° WNW 19:00:55 71° SSW 19:01:49 41° SE
STARLINK-60 2.9 18:57:40 10° SW 19:00:55 63° SSE 19:02:13 32° E
STARLINK-1211 2.9 18:58:13 10° WNW 19:01:22 70° SSW 19:02:16 42° SE
STARLINK-1214 2.9 18:58:40 10° WNW 19:01:48 70° SSW 19:02:41 42° SE
STARLINK-1245 2.9 18:59:10 10° WNW 19:02:17 69° SSW 19:03:07 43° SE
STARLINK-1238 2.9 18:59:35 10° WNW 19:02:43 69° SSW 19:03:34 43° SE
STARLINK-1205 2.9 19:00:31 10° WNW 19:03:38 68° SSW 19:04:25 44° SE
STARLINK-1216 3.7 18:59:35 10° WNW 19:03:45 76° NNE 19:05:45 29° E
STARLINK-1204 2.9 19:00:58 10° WNW 19:04:05 67° SSW 19:04:50 45° SE
Terra 3.5 19:03:35 17° E 19:04:56 19° ENE 19:08:14 10° NNE
Cosmos 1818 4.2 19:00:50 10° SW 19:06:12 59° NW 19:11:37 10° NE
Cosmos 1825 4.2 19:04:15 10° NNE 19:06:15 14° ENE 19:06:15 14° ENE
STARLINK-1237 3.6 19:04:33 10° WNW 19:08:43 78° NNE 19:10:31 33° E
Cosmos 1954 Rocket 4.0 19:04:43 10° S 19:09:50 57° ESE 19:14:56 10° NNE
Cosmos 1023 Rocket 4.4 19:05:59 10° SSW 19:11:10 85° ESE 19:16:20 10° NNE
Abrixas rocket 2.6 19:08:34 10° W 19:11:22 39° SSW 19:11:30 39° S
Cosmos 2151 4.4 19:09:38 10° NNE 19:12:56 22° ENE 19:13:16 22° ENE
Cosmos 2058 3.3 19:09:35 10° N 19:13:34 45° ENE 19:14:34 37° ESE
STARLINK-1202 3.6 19:09:32 10° WNW 19:13:43 81° NNE 19:15:18 36° ESE
SPOT 1/Viking Rocket 4.1 19:12:00 28° ESE 19:14:10 43° ENE 19:19:06 10° N
RESURS DK-1 3.7 19:12:44 10° NNW 19:16:18 26° NE 19:17:24 23° ENE
In-Cosmos 22 Rocket 4.3 19:11:37 10° N 19:17:27 65° ENE 19:20:35 28° SSE
Cosmos 1300 2.5 19:17:23 23° S 19:19:38 81° E 19:23:30 10° NNE
FALCON 9 DEB 3.7 19:17:32 10° SW 19:20:16 40° S 19:20:16 40° S
Cosmos 1076 Rocket 3.6 19:16:51 10° N 19:21:04 56° ENE 19:22:14 41° SE
MOS 1 Rocket 3.7 19:16:17 10° N 19:21:40 81° WNW 19:27:07 10° SSW
SL-4 R/B 1.4 19:18:17 10° WSW 19:21:42 86° NNW 19:22:39 45° ENE
STARLINK-1246 3.5 19:19:32 10° WNW 19:23:42 88° NNE 19:24:53 46° ESE
STARLINK-1203 3.6 19:20:09 10° WNW 19:24:22 87° SSW 19:25:34 46° ESE
Cosmos 1340 Rocket 3.7 19:20:29 10° SSW 19:24:26 51° WNW 19:28:23 10° N
STARLINK-1201 3.3 19:22:06 10° WNW 19:25:18 52° SSW 19:25:27 51° SSW
H-2A R/B 4.4 19:22:45 10° SW 19:26:38 21° W 19:30:27 10° NW
STARLINK-1224 3.5 19:24:30 10° WNW 19:28:39 88° SSW 19:29:39 51° ESE
Cosmos 1763 Rocket 3.7 19:23:41 10° NNW 19:28:49 54° ENE 19:30:28 38° ESE
STARLINK-1225 3.5 19:29:30 10° WNW 19:33:39 84° SSW 19:34:27 57° ESE
MetOp-B 4.2 19:33:01 28° S 19:35:58 80° WSW 19:41:23 10° NNW
SAR-Lupe-2 3.4 19:32:29 10° NNE 19:36:05 87° ESE 19:36:47 56° S
Cosmos 540 Rocket 4.3 19:33:33 10° N 19:38:19 36° NE 19:39:30 32° E
COSMOS 2406 4.0 19:39:02 32° E 19:39:02 32° E 19:43:28 10° NE
STARLINK-1230 3.5 19:34:28 10° WNW 19:38:38 81° SSW 19:39:14 63° SE
Cosmos 1174 4.0 19:34:58 10° NW 19:39:01 85° NE 19:40:09 52° SE
USA 234 3.3 19:33:46 10° ENE 19:40:07 50° SE 19:46:25 10° SSW
Meteor 2-10 Rocket 4.2 19:42:15 35° E 19:42:15 35° E 19:47:07 10° NNE
Cosmos-2242 4.1 19:44:33 29° ENE 19:44:33 29° ENE 19:47:29 10° NNE
STARLINK-1243 3.5 19:39:27 10° WNW 19:43:36 77° SSW 19:44:00 68° SSE
Iridium 4 Rocket 2.8 19:40:04 10° N 19:44:19 80° E 19:44:58 62° SSE
ATLAS 2AS CENTAUR R/B 4.2 19:39:47 10° NW 19:46:10 31° WSW 19:51:22 13° SSW
STARLINK-1236 3.5 19:44:25 10° WNW 19:48:34 73° SSW 19:48:47 70° S
USA 32 4.1 19:44:39 10° N 19:49:49 56° E 19:50:43 49° ESE
STPSAT 2 (USA 217) 4.4 19:48:49 42° SSW 19:50:15 78° ESE 19:54:47 10° NNE
CZ-4C R/B 3.5 19:46:22 10° NW 19:52:52 47° NNE 19:56:49 27° E
Cosmos 1140 Rocket 4.4 19:48:34 10° SW 19:53:34 48° WNW 19:58:35 10° NNE
Cosmos 2369 4.1 19:51:22 10° NNW 19:56:52 49° NE 19:58:09 42° E
STARLINK-1269 3.7 19:54:23 10° WNW 19:58:20 64° SW 19:58:20 64° SW
Spot 2 Rocket 3.9 19:56:54 33° SSW 19:59:01 58° WSW 20:04:05 10° NNW
Meteor 2-1 Rocket 4.2 19:56:24 34° S 19:59:06 80° E 20:05:05 10° NNE
Cosmos 1850 Rocket 3.9 19:59:22 59° SE 19:59:51 62° ESE 20:04:59 10° NNE
CZ-2C R/B 3.7 19:54:59 10° N 19:59:53 44° WNW 20:04:46 10° SW
Landsat 7 3.9 19:58:57 49° S 20:00:10 73° WSW 20:04:57 10° NNW
COSMOS 2455 4.0 19:56:53 10° NW 20:02:19 36° WSW 20:05:12 23° SSW
Cosmos 1697 Rocket 3.0 19:57:18 10° NNW 20:02:54 55° NE 20:04:03 47° E
Cosmos 1408 3.2 19:59:24 10° N 20:02:18 51° NNE 20:02:18 51° NNE
STARLINK-1200 3.9 19:59:22 10° WNW 20:03:07 58° SW 20:03:07 58° SW
ASTEX 1 4.4 20:05:06 33° ENE 20:05:06 33° ENE 20:09:17 10° N
Cosmos 841 Rocket 3.5 20:00:52 10° NNW 20:06:08 62° ENE 20:06:47 57° E
CARTOSAT-1 3.4 20:06:17 78° ENE 20:06:17 78° ENE 20:10:37 10° NNW
IGS 5A 3.7 20:06:53 56° SW 20:07:18 60° W 20:11:26 10° NNW
STARLINK-1192 4.1 20:04:22 10° WNW 20:07:54 52° WSW 20:07:54 52° WSW
Cosmos 2218 Rocket 4.4 20:02:54 10° NNW 20:08:59 59° W 20:12:18 28° SSW
Cosmos 1356 Rocket 4.0 20:10:36 49° NE 20:10:36 49° NE 20:13:54 10° NNE
Resurs 01 Rocket 3.7 20:08:30 13° SW 20:11:20 22° W 20:14:48 10° NW
Okean 3 Rocket 3.6 20:08:30 10° N 20:12:40 70° NE 20:12:40 70° NE
STARLINK-1244 4.3 20:09:20 10° WNW 20:12:41 47° WSW 20:12:41 47° WSW
Mayak 0.9 20:10:08 10° NE 20:11:12 15° NE 20:11:12 15° NE
ERBS 3.9 20:10:19 10° WNW 20:12:22 31° W 20:12:22 31° W
Cosmos 468 Rocket 4.4 20:11:59 10° NNW 20:17:03 55° WSW 20:18:01 47° SSW
BREEZE-M DEB (TANK) 4.4 20:14:42 10° W 20:15:10 13° W 20:15:10 13° W
ATLAS CENTAUR R/B 2.2 20:13:34 10° NNW 20:16:45 41° NNE 20:16:45 41° NNE
Cosmos 1766 Rocket 3.7 20:13:45 10° N 20:17:48 64° NE 20:17:48 64° NE
STARLINK-1138 4.5 20:14:20 10° WNW 20:17:28 42° WSW 20:17:28 42° WSW
SL-16 R/B 4.0 20:16:08 10° N 20:20:23 21° NE 20:22:23 18° ENE
Cosmos 1570 Rocket 3.9 20:15:59 10° NNW 20:21:22 86° WSW 20:21:55 73° S
ERS-1 Rocket 3.2 20:27:20 57° SW 20:27:59 62° WSW 20:32:59 10° NNW
Meteor 2-3 Rocket 3.9 20:22:49 10° N 20:28:30 55° ENE 20:28:43 55° E
Cosmos 2322 Rocket 4.0 20:24:40 10° N 20:28:49 20° NE 20:30:46 17° ENE
Cosmos 1455 3.3 20:30:11 40° N 20:30:11 40° N 20:32:45 10° N
Cosmos 1656 3.8 20:24:33 10° NW 20:30:11 63° WSW 20:30:56 57° SSW
Cosmos 1892 4.2 20:28:31 10° NNW 20:32:00 32° W 20:32:00 32° W
Cosmos 1980 Rocket 2.5 20:26:37 10° NNW 20:32:07 52° NE 20:32:34 51° ENE
SPOT 5 3.0 20:34:14 59° W 20:34:14 59° W 20:38:13 10° NNW
Terra 2.0 20:42:27 70° WNW 20:42:27 70° WNW 20:46:58 10° NNW
Cosmos 1825 3.5 20:38:30 10° NNW 20:41:04 38° NW 20:41:04 38° NW
Cosmos 2344 4.4 20:33:57 10° NW 20:43:03 71° NE 20:48:33 37° ESE
ATLAS 5 CENTAUR R/B 3.5 20:41:56 10° W 20:45:54 31° NNW 20:50:23 10° NE
Cosmos 2151 4.1 20:46:27 10° NNW 20:49:51 39° WNW 20:49:51 39° WNW
Nadezhda 3 Rocket 4.0 20:50:21 64° SSW 20:51:24 83° W 20:57:43 10° N
Cosmos 2360 4.1 20:47:09 10° NNW 20:52:50 87° NNE 20:52:50 87° NNE
RESURS DK-1 3.8 20:50:32 10° NW 20:53:17 34° WNW 20:53:17 34° WNW
Cosmos 1535 Rocket 4.3 20:49:10 10° N 20:55:21 81° E 20:55:36 79° ESE
Cosmos 2278 3.6 20:53:30 10° NNW 20:58:59 83° NW 20:58:59 83° NW
Cosmos 1408 Rocket 4.4 20:55:03 10° NNW 20:58:24 49° NNW 20:58:24 49° NNW
Thor Agena Rocket 4.4 20:55:39 10° NNE 20:59:03 39° NE 20:59:03 39° NE
Cosmos 2082 Rocket 3.2 21:03:59 36° ENE 21:03:59 36° ENE 21:07:30 10° NE
Cosmos 1833 Rocket 2.8 21:13:44 68° NNE 21:13:44 68° NNE 21:18:39 10° NNE
Cosmos 2221 4.2 21:21:51 29° NNE 21:21:51 29° NNE 21:24:02 10° NNE
BREEZE M DEB (TANK) 4.2 21:14:40 10° WSW 21:19:47 85° S 21:40:17 10° E
Meteor 1-27 4.4 21:21:10 68° NNE 21:21:10 68° NNE 21:26:17 10° NNE
COSMOS 2406 3.9 21:21:00 40° W 21:22:33 50° NW 21:28:08 10° NNE
USA 234 3.4 21:16:50 10° ENE 21:23:21 72° NNW 21:29:52 10° WSW
Cosmos 1934 Rocket 4.1 21:18:17 10° NNW 21:24:29 64° W 21:24:38 64° WSW
Cosmos 1605 Rocket 4.0 21:32:48 10° NNW 21:38:36 73° WNW 21:38:36 73° WNW
CZ-4C R/B 2.9 21:34:49 10° NW 21:41:54 67° SW 21:41:59 67° SW
Cosmos 1697 Rocket 4.1 21:41:45 10° NW 21:45:47 28° W 21:45:47 28° W
Mayak 0.7 21:45:25 10° N 21:47:46 28° NNW 21:47:46 28° NNW
ALOS 2 4.3 21:55:17 32° N 21:55:17 32° N 21:57:41 10° N
SL-16 R/B 2.7 21:59:42 10° NNW 22:04:14 57° NNW 22:04:14 57° NNW
Cosmos 2360 Rocket 3.1 22:03:32 10° NNW 22:08:30 43° NE 22:08:30 43° NE
Cosmos 2322 Rocket 2.8 22:08:09 10° NNW 22:12:34 55° NNW 22:12:34 55° NNW
Cosmos 1980 Rocket 3.7 22:11:01 10° NW 22:14:20 27° WNW 22:14:20 27° WNW
Cosmos 2333 Rocket 3.8 22:19:05 10° NNW 22:23:55 28° NE 22:25:05 26° ENE
ATLAS 5 CENTAUR R/B 4.5 22:28:40 10° NW 22:32:06 19° N 22:35:52 10° NE
Cosmos 2061 Rocket 4.2 22:26:31 10° N 22:32:00 68° NNE 22:32:00 68° NNE
Cosmos 1607 4.2 22:38:22 63° NNW 22:38:22 63° NNW 22:44:11 10° NE
Cosmos 2082 Rocket 3.5 22:45:47 33° WNW 22:46:21 33° NW 22:51:29 10° NNE
SL-16 R/B 4.1 22:46:28 23° E 22:48:26 28° NE 22:53:33 10° N
Cosmos 1459 Rocket 4.5 22:44:21 10° NNW 22:49:42 53° WNW 22:49:42 53° WNW
Cosmos 2233 Rocket 4.2 22:53:46 10° N 22:59:27 64° NE 22:59:27 64° NE
USA 234 4.0 22:59:43 10° ENE 23:05:58 49° N 23:12:12 10° WNW
Cosmos 2219 Rocket 3.0 23:02:00 10° NNW 23:07:20 44° NE 23:07:20 44° NE
Cosmos 1725 Rocket 4.2 23:01:11 10° NNW 23:06:34 63° NW 23:06:34 63° NW
Cosmos 2016 Rocket 4.4 23:01:30 10° NNW 23:06:48 55° NW 23:06:48 55° NW
Cosmos 2123 Rocket 4.2 23:19:41 66° NNW 23:19:41 66° NNW 23:25:08 10° N
Cosmos 1680 Rocket 4.4 23:16:28 10° NNW 23:20:30 47° NNE 23:20:30 47° NNE
Cosmos 2322 4.3 23:21:12 10° NNW 23:25:36 54° NNW 23:25:36 54° NNW
COSMOS 2428 3.2 23:22:46 10° NNW 23:28:05 57° NE 23:28:05 57° NE
SJ 16-02 3.4 23:37:59 23° ENE 23:37:59 23° ENE 23:40:03 10° NE
Resurs 1-4 Rocket 3.5 23:33:45 10° NNE 23:37:53 30° E 23:37:53 30° E
SL-16 R/B 4.4 23:44:55 10° NW 23:46:05 14° WNW 23:46:05 14° WNW
Cosmos 2360 Rocket 3.8 23:47:42 10° NW 23:50:15 25° WNW 23:50:15 25° WNW
